User: anonymous   Login
Location: Decatur(IL)
(39.8400°N, 88.9550°W)
Time: 05:51:50
(UTC-05:00)
Language:

Cosmos 2242 Rocket - Orbit

View from above orbital plane
View from above orbital plane
View from above satellite
View from above satellite

Ground track
Ground track

The orbit data is extracted from the following two-line orbital elements,

1 22627U 93024B   17204.76584550 +.00000041 +00000-0 +25078-5 0  9993
2 22627 082.5211 066.1673 0022755 207.9665 198.6336 14.78083844307547
Epoch (UTC): 23 July 2017 18:22:49
Eccentricity: 0.0022755
inclination: 82.5211°
perigee height: 619 km
apogee height: 651 km
right ascension of ascending node: 66.1673°
argument of perigee: 207.9665°
revolutions per day: 14.78083844
mean anomaly at epoch: 198.6336°
orbit number at epoch: 30754

The dashed part of the orbit path shows where the satellite is in the earth's shadow,  

DLR